Tabellarische Ansicht des 6.9.2021


Die einzelnen Werte des Tages

Uhrzeit Temperatur Luftdruck Luftfeuchte Wind Hi-Wind Taupunkt THW Index Wind Chill Heat Index Solar- strahlung Regen

00:00

11.6 C

1019.6 hpa

85 %

0.0 km/h aus 117

0.0 km/h aus ---

9.2 C

11.6 C

11.6 C

11.6 C

0 W/m

0.00 mm

00:05

11.6 C

1019.6 hpa

85 %

0.0 km/h aus 115

0.0 km/h aus ---

9.1 C

11.5 C

11.6 C

11.5 C

0 W/m

0.00 mm

00:10

11.4 C

1019.6 hpa

85 %

0.0 km/h aus 113

0.0 km/h aus ---

9.0 C

11.4 C

11.4 C

11.4 C

0 W/m

0.00 mm

00:15

11.4 C

1019.6 hpa

85 %

0.0 km/h aus 116

0.0 km/h aus ---

9.0 C

11.4 C

11.4 C

11.4 C

0 W/m

0.00 mm

00:20

11.3 C

1019.6 hpa

85 %

0.0 km/h aus 117

0.0 km/h aus ---

8.8 C

11.3 C

11.3 C

11.3 C

0 W/m

0.00 mm

00:25

11.2 C

1019.6 hpa

85 %

0.0 km/h aus 117

0.0 km/h aus ---

8.8 C

11.2 C

11.2 C

11.2 C

0 W/m

0.00 mm

00:30

11.1 C

1019.7 hpa

85 %

0.0 km/h aus 117

0.0 km/h aus ---

8.7 C

11.1 C

11.1 C

11.1 C

0 W/m

0.00 mm

00:35

11.1 C

1019.7 hpa

85 %

0.0 km/h aus 114

0.0 km/h aus ---

8.6 C

11.1 C

11.1 C

11.1 C

0 W/m

0.00 mm

00:40

10.9 C

1019.7 hpa

85 %

0.0 km/h aus 115

0.0 km/h aus ---

8.5 C

10.9 C

10.9 C

10.9 C

0 W/m

0.00 mm

00:45

10.8 C

1019.7 hpa

85 %

0.0 km/h aus 118

0.0 km/h aus ---

8.4 C

10.8 C

10.8 C

10.8 C

0 W/m

0.00 mm

00:50

10.8 C

1019.7 hpa

85 %

0.0 km/h aus 117

0.0 km/h aus ---

8.4 C

10.8 C

10.8 C

10.8 C

0 W/m

0.00 mm

00:55

10.7 C

0.0 hpa

85 %

0.0 km/h aus 0

0.0 km/h aus ---

8.3 C

10.0 C

10.7 C

10.7 C

0 W/m

0.00 mm

01:00

10.7 C

1019.7 hpa

85 %

0.0 km/h aus 116

0.0 km/h aus ---

8.2 C

10.7 C

10.7 C

10.7 C

0 W/m

0.00 mm

01:05

10.6 C

1019.7 hpa

85 %

0.0 km/h aus 114

0.0 km/h aus ---

8.1 C

10.6 C

10.6 C

10.6 C

0 W/m

0.00 mm

01:10

10.5 C

1019.7 hpa

85 %

0.0 km/h aus 116

0.0 km/h aus ---

8.1 C

10.5 C

10.5 C

10.5 C

0 W/m

0.00 mm

01:15

10.4 C

1019.8 hpa

85 %

0.0 km/h aus 116

0.0 km/h aus ---

8.0 C

10.4 C

10.4 C

10.4 C

0 W/m

0.00 mm

01:20

10.4 C

1019.8 hpa

86 %

0.0 km/h aus 117

0.0 km/h aus ---

8.1 C

10.4 C

10.4 C

10.4 C

0 W/m

0.00 mm

01:25

10.3 C

1019.8 hpa

86 %

0.0 km/h aus 117

0.0 km/h aus ---

8.1 C

10.4 C

10.3 C

10.4 C

0 W/m

0.00 mm

01:30

10.3 C

1019.7 hpa

86 %

0.0 km/h aus 115

0.0 km/h aus ---

8.0 C

10.3 C

10.3 C

10.3 C

0 W/m

0.00 mm

01:35

10.2 C

1019.7 hpa

86 %

0.0 km/h aus 115

0.0 km/h aus ---

8.0 C

10.3 C

10.2 C

10.3 C

0 W/m

0.00 mm

01:40

10.2 C

1019.7 hpa

86 %

0.0 km/h aus 117

0.0 km/h aus ---

7.9 C

10.2 C

10.2 C

10.2 C

0 W/m

0.00 mm

01:45

10.1 C

1019.7 hpa

86 %

0.0 km/h aus 117

0.0 km/h aus ---

7.8 C

10.1 C

10.1 C

10.1 C

0 W/m

0.00 mm

01:50

10.0 C

1019.7 hpa

86 %

0.0 km/h aus 116

0.0 km/h aus ---

7.8 C

10.1 C

10.0 C

10.1 C

0 W/m

0.00 mm

01:55

9.9 C

1019.7 hpa

86 %

0.0 km/h aus 116

0.0 km/h aus ---

7.7 C

10.0 C

9.9 C

10.0 C

0 W/m

0.00 mm

02:00

9.8 C

1019.8 hpa

86 %

0.0 km/h aus 115

0.0 km/h aus ---

7.6 C

9.9 C

9.8 C

9.9 C

0 W/m

0.00 mm

02:05

9.8 C

1019.8 hpa

86 %

0.0 km/h aus 114

0.0 km/h aus ---

7.5 C

9.8 C

9.8 C

9.8 C

0 W/m

0.00 mm

02:10

9.7 C

1019.8 hpa

86 %

0.0 km/h aus 117

0.0 km/h aus ---

7.5 C

9.8 C

9.7 C

9.8 C

0 W/m

0.00 mm

02:15

9.7 C

1019.7 hpa

86 %

0.0 km/h aus 117

0.0 km/h aus ---

7.4 C

9.7 C

9.7 C

9.7 C

0 W/m

0.00 mm

02:20

9.6 C

1019.7 hpa

86 %

0.0 km/h aus 116

0.0 km/h aus ---

7.3 C

9.6 C

9.6 C

9.6 C

0 W/m

0.00 mm

02:25

9.6 C

1019.7 hpa

86 %

0.0 km/h aus 116

0.0 km/h aus ---

7.3 C

9.6 C

9.6 C

9.6 C

0 W/m

0.00 mm

02:30

9.5 C

1019.6 hpa

86 %

0.0 km/h aus 114

0.0 km/h aus ---

7.3 C

9.6 C

9.5 C

9.6 C

0 W/m

0.00 mm

02:35

9.4 C

1019.6 hpa

86 %

0.0 km/h aus 117

0.0 km/h aus ---

7.2 C

9.4 C

9.4 C

9.4 C

0 W/m

0.00 mm

02:40

9.3 C

1019.6 hpa

86 %

0.0 km/h aus 117

0.0 km/h aus ---

7.1 C

9.4 C

9.3 C

9.4 C

0 W/m

0.00 mm

02:45

9.3 C

1019.6 hpa

86 %

0.0 km/h aus 117

0.0 km/h aus ---

7.1 C

9.3 C

9.3 C

9.3 C

0 W/m

0.00 mm

02:50

9.3 C

1019.6 hpa

86 %

0.0 km/h aus 117

0.0 km/h aus ---

7.1 C

9.3 C

9.3 C

9.3 C

0 W/m

0.00 mm

02:55

9.2 C

1019.6 hpa

87 %

0.0 km/h aus 116

0.0 km/h aus ---

7.2 C

9.3 C

9.2 C

9.3 C

0 W/m

0.00 mm

03:00

9.2 C

1019.6 hpa

87 %

0.0 km/h aus 115

0.0 km/h aus ---

7.1 C

9.2 C

9.2 C

9.2 C

0 W/m

0.00 mm

03:05

9.1 C

1019.6 hpa

87 %

0.0 km/h aus 116

0.0 km/h aus ---

7.1 C

9.2 C

9.1 C

9.2 C

0 W/m

0.00 mm

03:10

9.1 C

1019.6 hpa

87 %

0.0 km/h aus 117

0.0 km/h aus ---

7.0 C

9.1 C

9.1 C

9.1 C

0 W/m

0.00 mm

03:15

9.0 C

1019.6 hpa

87 %

0.0 km/h aus 117

0.0 km/h aus ---

7.0 C

9.1 C

9.0 C

9.1 C

0 W/m

0.00 mm

03:20

8.9 C

1019.6 hpa

87 %

0.0 km/h aus 117

0.0 km/h aus ---

6.9 C

9.0 C

8.9 C

9.0 C

0 W/m

0.00 mm

03:25

8.9 C

1019.6 hpa

87 %

0.0 km/h aus 113

0.0 km/h aus ---

6.8 C

8.9 C

8.9 C

8.9 C

0 W/m

0.00 mm

03:30

8.8 C

1019.6 hpa

87 %

0.0 km/h aus 116

0.0 km/h aus ---

6.8 C

8.9 C

8.8 C

8.9 C

0 W/m

0.00 mm

03:35

8.8 C

1019.6 hpa

87 %

0.0 km/h aus 117

0.0 km/h aus ---

6.8 C

8.9 C

8.8 C

8.9 C

0 W/m

0.00 mm

03:40

8.7 C

1019.6 hpa

87 %

0.0 km/h aus 115

0.0 km/h aus ---

6.7 C

8.8 C

8.7 C

8.8 C

0 W/m

0.00 mm

03:45

8.7 C

1019.6 hpa

87 %

0.0 km/h aus 117

0.0 km/h aus ---

6.6 C

8.7 C

8.7 C

8.7 C

0 W/m

0.00 mm

03:50

8.7 C

1019.6 hpa

87 %

0.0 km/h aus 116

0.0 km/h aus ---

6.6 C

8.7 C

8.7 C

8.7 C

0 W/m

0.00 mm

03:55

8.6 C

1019.6 hpa

87 %

0.0 km/h aus 114

0.0 km/h aus ---

6.5 C

8.6 C

8.6 C

8.6 C

0 W/m

0.00 mm

04:00

8.5 C

1019.6 hpa

87 %

0.0 km/h aus 118

0.0 km/h aus ---

6.5 C

8.6 C

8.5 C

8.6 C

0 W/m

0.00 mm

04:05

8.4 C

1019.6 hpa

87 %

0.0 km/h aus 116

0.0 km/h aus ---

6.4 C

8.5 C

8.4 C

8.5 C

0 W/m

0.00 mm

04:10

8.4 C

1019.6 hpa

87 %

0.0 km/h aus 117

0.0 km/h aus ---

6.4 C

8.5 C

8.4 C

8.5 C

0 W/m

0.00 mm

04:15

8.4 C

1019.6 hpa

87 %

0.0 km/h aus 117

0.0 km/h aus ---

6.3 C

8.4 C

8.4 C

8.4 C

0 W/m

0.00 mm

04:20

8.3 C

1019.6 hpa

87 %

0.0 km/h aus 115

0.0 km/h aus ---

6.3 C

8.4 C

8.3 C

8.4 C

0 W/m

0.00 mm

04:25

8.3 C

1019.6 hpa

87 %

0.0 km/h aus 114

0.0 km/h aus ---

6.2 C

8.3 C

8.3 C

8.3 C

0 W/m

0.00 mm

04:30

8.3 C

1019.7 hpa

87 %

0.0 km/h aus 116

0.0 km/h aus ---

6.2 C

8.3 C

8.3 C

8.3 C

0 W/m

0.00 mm

04:35

8.3 C

1019.7 hpa

88 %

0.0 km/h aus 117

0.0 km/h aus ---

6.4 C

8.3 C

8.3 C

8.3 C

0 W/m

0.00 mm

04:40

8.3 C

1019.7 hpa

88 %

0.0 km/h aus 117

0.0 km/h aus ---

6.4 C

8.3 C

8.3 C

8.3 C

0 W/m

0.00 mm

04:45

8.3 C

1019.6 hpa

88 %

0.0 km/h aus 117

0.0 km/h aus ---

6.4 C

8.3 C

8.3 C

8.3 C

0 W/m

0.00 mm

04:50

8.2 C

1019.6 hpa

88 %

0.0 km/h aus 114

0.0 km/h aus ---

6.4 C

8.3 C

8.2 C

8.3 C

0 W/m

0.00 mm

04:55

8.2 C

1019.6 hpa

88 %

0.0 km/h aus 114

0.0 km/h aus ---

6.4 C

8.3 C

8.2 C

8.3 C

0 W/m

0.00 mm

05:00

8.2 C

1019.6 hpa

88 %

0.0 km/h aus 118

0.0 km/h aus ---

6.4 C

8.3 C

8.2 C

8.3 C

0 W/m

0.00 mm

05:05

8.2 C

1019.6 hpa

88 %

0.0 km/h aus 116

0.0 km/h aus ---

6.4 C

8.3 C

8.2 C

8.3 C

0 W/m

0.00 mm

05:10

8.2 C

1019.6 hpa

88 %

0.0 km/h aus 117

0.0 km/h aus ---

6.4 C

8.3 C

8.2 C

8.3 C

0 W/m

0.00 mm

05:15

8.2 C

1019.6 hpa

88 %

0.0 km/h aus 117

0.0 km/h aus ---

6.3 C

8.2 C

8.2 C

8.2 C

0 W/m

0.00 mm

05:20

8.2 C

1019.6 hpa

88 %

0.0 km/h aus 114

0.0 km/h aus ---

6.3 C

8.2 C

8.2 C

8.2 C

0 W/m

0.00 mm

05:25

8.2 C

1019.6 hpa

89 %

0.0 km/h aus 115

0.0 km/h aus ---

6.5 C

8.2 C

8.2 C

8.2 C

0 W/m

0.00 mm

05:30

8.2 C

1019.6 hpa

89 %

0.0 km/h aus 117

0.0 km/h aus ---

6.5 C

8.2 C

8.2 C

8.2 C

0 W/m

0.00 mm

05:35

8.2 C

1019.6 hpa

89 %

0.0 km/h aus 117

0.0 km/h aus ---

6.5 C

8.2 C

8.2 C

8.2 C

0 W/m

0.25 mm

05:40

8.2 C

1019.6 hpa

89 %

0.0 km/h aus 117

0.0 km/h aus ---

6.5 C

8.2 C

8.2 C

8.2 C

0 W/m

0.00 mm

05:45

8.2 C

1019.6 hpa

89 %

0.0 km/h aus 116

0.0 km/h aus ---

6.5 C

8.2 C

8.2 C

8.2 C

0 W/m

0.00 mm

05:50

8.2 C

1019.6 hpa

89 %

0.0 km/h aus 114

0.0 km/h aus ---

6.5 C

8.2 C

8.2 C

8.2 C

0 W/m

0.00 mm

05:55

8.2 C

1019.6 hpa

89 %

0.0 km/h aus 114

0.0 km/h aus ---

6.5 C

8.2 C

8.2 C

8.2 C

0 W/m

0.00 mm

06:00

8.2 C

1019.6 hpa

89 %

0.0 km/h aus 116

0.0 km/h aus ---

6.5 C

8.2 C

8.2 C

8.2 C

0 W/m

0.00 mm

06:05

8.2 C

1019.6 hpa

89 %

0.0 km/h aus 118

0.0 km/h aus ---

6.5 C

8.2 C

8.2 C

8.2 C

0 W/m

0.00 mm

06:10

8.2 C

1019.6 hpa

89 %

0.0 km/h aus 116

0.0 km/h aus ---

6.5 C

8.2 C

8.2 C

8.2 C

0 W/m

0.00 mm

06:15

8.2 C

1019.9 hpa

89 %

0.0 km/h aus 116

0.0 km/h aus ---

6.5 C

8.2 C

8.2 C

8.2 C

0 W/m

0.00 mm

06:20

8.2 C

1019.9 hpa

89 %

0.0 km/h aus 114

0.0 km/h aus ---

6.5 C

8.3 C

8.2 C

8.3 C

0 W/m

0.00 mm

06:25

8.2 C

1019.9 hpa

89 %

0.0 km/h aus 116

0.0 km/h aus ---

6.5 C

8.3 C

8.2 C

8.3 C

0 W/m

0.00 mm

06:30

8.2 C

1020.1 hpa

89 %

0.0 km/h aus 116

0.0 km/h aus ---

6.5 C

8.2 C

8.2 C

8.2 C

0 W/m

0.00 mm

06:35

8.2 C

1020.1 hpa

90 %

0.0 km/h aus 117

0.0 km/h aus ---

6.7 C

8.3 C

8.2 C

8.3 C

0 W/m

0.00 mm

06:40

8.2 C

1020.1 hpa

90 %

0.0 km/h aus 116

0.0 km/h aus ---

6.7 C

8.3 C

8.2 C

8.3 C

5 W/m

0.00 mm

06:45

8.3 C

1020.1 hpa

90 %

0.0 km/h aus 115

0.0 km/h aus ---

6.8 C

8.4 C

8.3 C

8.4 C

7 W/m

0.00 mm

06:50

8.4 C

1020.1 hpa

90 %

0.0 km/h aus 115

0.0 km/h aus ---

6.8 C

8.5 C

8.4 C

8.5 C

9 W/m

0.00 mm

06:55

8.4 C

1020.1 hpa

90 %

0.0 km/h aus 116

0.0 km/h aus ---

6.8 C

8.5 C

8.4 C

8.5 C

12 W/m

0.00 mm

07:00

8.4 C

1020.1 hpa

91 %

0.0 km/h aus 117

0.0 km/h aus ---

7.1 C

8.6 C

8.4 C

8.6 C

13 W/m

0.00 mm

07:05

8.5 C

1020.1 hpa

91 %

0.0 km/h aus 116

0.0 km/h aus ---

7.1 C

8.6 C

8.5 C

8.6 C

18 W/m

0.00 mm

07:10

8.5 C

1020.1 hpa

91 %

0.0 km/h aus 118

0.0 km/h aus ---

7.1 C

8.6 C

8.5 C

8.6 C

24 W/m

0.00 mm

07:15

8.6 C

1020.1 hpa

91 %

0.0 km/h aus 115

0.0 km/h aus ---

7.2 C

8.7 C

8.6 C

8.7 C

26 W/m

0.00 mm

07:20

8.6 C

1020.1 hpa

91 %

0.0 km/h aus 115

0.0 km/h aus ---

7.2 C

8.7 C

8.6 C

8.7 C

30 W/m

0.00 mm

07:25

8.6 C

1020.1 hpa

91 %

0.0 km/h aus 117

0.0 km/h aus ---

7.2 C

8.7 C

8.6 C

8.7 C

33 W/m

0.00 mm

07:30

8.7 C

1020.2 hpa

91 %

0.0 km/h aus 117

0.0 km/h aus ---

7.3 C

8.8 C

8.7 C

8.8 C

40 W/m

0.00 mm

07:35

8.7 C

1020.2 hpa

91 %

0.0 km/h aus 117

0.0 km/h aus ---

7.3 C

8.8 C

8.7 C

8.8 C

54 W/m

0.00 mm

07:40

8.8 C

1020.2 hpa

91 %

0.0 km/h aus 117

0.0 km/h aus ---

7.4 C

8.9 C

8.8 C

8.9 C

61 W/m

0.00 mm

07:45

8.8 C

1020.2 hpa

91 %

0.0 km/h aus 114

0.0 km/h aus ---

7.4 C

8.9 C

8.8 C

8.9 C

74 W/m

0.00 mm

07:50

8.8 C

1020.2 hpa

91 %

0.0 km/h aus 116

0.0 km/h aus ---

7.4 C

8.9 C

8.8 C

8.9 C

82 W/m

0.00 mm

07:55

8.8 C

1020.2 hpa

91 %

0.0 km/h aus 117

0.0 km/h aus ---

7.4 C

8.9 C

8.8 C

8.9 C

88 W/m

0.00 mm

08:00

8.9 C

1020.4 hpa

92 %

0.0 km/h aus 117

0.0 km/h aus ---

7.7 C

9.1 C

8.9 C

9.1 C

93 W/m

0.00 mm

08:05

8.9 C

1020.4 hpa

92 %

0.0 km/h aus 116

0.0 km/h aus ---

7.7 C

9.1 C

8.9 C

9.1 C

102 W/m

0.00 mm

08:10

9.0 C

1020.4 hpa

92 %

0.0 km/h aus 115

0.0 km/h aus ---

7.8 C

9.2 C

9.0 C

9.2 C

105 W/m

0.00 mm

08:15

9.1 C

1020.5 hpa

92 %

0.0 km/h aus 115

0.0 km/h aus ---

7.8 C

9.2 C

9.1 C

9.2 C

115 W/m

0.00 mm

08:20

9.2 C

1020.5 hpa

92 %

0.0 km/h aus 117

0.0 km/h aus ---

7.9 C

9.3 C

9.2 C

9.3 C

120 W/m

0.00 mm

08:25

9.2 C

1020.5 hpa

92 %

0.0 km/h aus 117

0.0 km/h aus ---

8.0 C

9.4 C

9.2 C

9.4 C

123 W/m

0.00 mm

08:30

9.3 C

1020.6 hpa

92 %

0.0 km/h aus 117

0.0 km/h aus ---

8.1 C

9.6 C

9.3 C

9.6 C

130 W/m

0.00 mm

08:35

9.4 C

1020.6 hpa

92 %

0.0 km/h aus 116

0.0 km/h aus ---

8.2 C

9.7 C

9.4 C

9.7 C

133 W/m

0.00 mm

08:40

9.6 C

1020.6 hpa

92 %

0.0 km/h aus 113

0.0 km/h aus ---

8.4 C

9.8 C

9.6 C

9.8 C

137 W/m

0.00 mm

08:45

9.7 C

1020.7 hpa

92 %

0.0 km/h aus 116

0.0 km/h aus ---

8.4 C

9.9 C

9.7 C

9.9 C

150 W/m

0.00 mm

08:50

9.9 C

1020.7 hpa

93 %

0.0 km/h aus 117

0.0 km/h aus ---

8.9 C

10.2 C

9.9 C

10.2 C

168 W/m

0.00 mm

08:55

10.0 C

1020.7 hpa

93 %

0.0 km/h aus 116

0.0 km/h aus ---

8.9 C

10.2 C

10.0 C

10.2 C

180 W/m

0.00 mm

09:00

10.1 C

1020.7 hpa

93 %

0.0 km/h aus 117

0.0 km/h aus ---

9.0 C

10.3 C

10.1 C

10.3 C

184 W/m

0.00 mm

09:05

10.1 C

1020.7 hpa

94 %

0.0 km/h aus 114

0.0 km/h aus ---

9.2 C

10.3 C

10.1 C

10.3 C

185 W/m

0.00 mm

09:10

10.2 C

1020.7 hpa

94 %

0.0 km/h aus 116

0.0 km/h aus ---

9.3 C

10.4 C

10.2 C

10.4 C

189 W/m

0.00 mm

09:15

10.4 C

1020.8 hpa

94 %

0.0 km/h aus 117

0.0 km/h aus ---

9.5 C

10.6 C

10.4 C

10.6 C

197 W/m

0.00 mm

09:20

10.6 C

1020.8 hpa

95 %

0.0 km/h aus 118

0.0 km/h aus ---

9.8 C

10.8 C

10.6 C

10.8 C

213 W/m

0.00 mm

09:25

10.8 C

1020.8 hpa

95 %

0.0 km/h aus 117

0.0 km/h aus ---

10.0 C

11.0 C

10.8 C

11.0 C

206 W/m

0.00 mm

09:30

10.7 C

1021.0 hpa

95 %

0.0 km/h aus 115

0.0 km/h aus ---

9.9 C

10.9 C

10.7 C

10.9 C

244 W/m

0.00 mm

09:35

10.9 C

1021.0 hpa

95 %

0.0 km/h aus 115

0.0 km/h aus ---

10.2 C

11.1 C

10.9 C

11.1 C

230 W/m

0.00 mm

09:40

11.0 C

1021.0 hpa

95 %

0.0 km/h aus 117

0.0 km/h aus ---

10.2 C

11.2 C

11.0 C

11.2 C

242 W/m

0.00 mm

09:45

11.2 C

1021.1 hpa

95 %

1.6 km/h aus 116

4.8 km/h aus NW

10.4 C

11.3 C

11.2 C

11.3 C

248 W/m

0.00 mm

09:50

11.3 C

1021.1 hpa

95 %

0.0 km/h aus 117

0.0 km/h aus ---

10.6 C

11.5 C

11.3 C

11.5 C

301 W/m

0.00 mm

09:55

11.6 C

1021.1 hpa

96 %

0.0 km/h aus 114

1.6 km/h aus NW

11.0 C

11.8 C

11.6 C

11.8 C

290 W/m

0.00 mm

10:00

11.6 C

1021.0 hpa

95 %

0.0 km/h aus 114

0.0 km/h aus ---

10.8 C

11.8 C

11.6 C

11.8 C

229 W/m

0.00 mm

10:05

11.8 C

1021.0 hpa

95 %

0.0 km/h aus 117

0.0 km/h aus ---

11.0 C

11.9 C

11.8 C

11.9 C

272 W/m

0.00 mm

10:10

12.2 C

1021.0 hpa

95 %

0.0 km/h aus 115

0.0 km/h aus ---

11.4 C

12.3 C

12.2 C

12.3 C

337 W/m

0.00 mm

10:15

12.5 C

1021.0 hpa

95 %

0.0 km/h aus 117

1.6 km/h aus NW

11.7 C

12.6 C

12.5 C

12.6 C

401 W/m

0.00 mm

10:20

12.8 C

1021.0 hpa

95 %

0.0 km/h aus 114

3.2 km/h aus NW

12.0 C

12.9 C

12.8 C

12.9 C

494 W/m

0.00 mm

10:25

13.1 C

1021.0 hpa

94 %

0.0 km/h aus 117

4.8 km/h aus NW

12.2 C

13.2 C

13.1 C

13.2 C

485 W/m

0.00 mm

10:30

13.3 C

1021.3 hpa

93 %

1.6 km/h aus 117

4.8 km/h aus NW

12.2 C

13.4 C

13.3 C

13.4 C

490 W/m

0.00 mm

10:35

13.7 C

1021.3 hpa

92 %

3.2 km/h aus 115

8.0 km/h aus NW

12.4 C

13.8 C

13.7 C

13.8 C

497 W/m

0.00 mm

10:40

14.0 C

1021.3 hpa

92 %

1.6 km/h aus 116

6.4 km/h aus NW

12.7 C

14.1 C

14.0 C

14.1 C

508 W/m

0.00 mm

10:45

14.3 C

1021.5 hpa

91 %

1.6 km/h aus 113

6.4 km/h aus WNW

12.9 C

14.4 C

14.3 C

14.4 C

525 W/m

0.00 mm

10:50

14.4 C

1021.5 hpa

91 %

1.6 km/h aus 117

6.4 km/h aus WNW

12.9 C

14.4 C

14.4 C

14.4 C

539 W/m

0.00 mm

10:55

14.6 C

1021.5 hpa

90 %

3.2 km/h aus 117

6.4 km/h aus WNW

12.9 C

14.6 C

14.6 C

14.6 C

547 W/m

0.00 mm

11:00

15.1 C

1021.5 hpa

90 %

0.0 km/h aus 117

3.2 km/h aus WNW

13.4 C

15.2 C

15.1 C

15.2 C

563 W/m

0.00 mm

11:05

15.3 C

1021.5 hpa

88 %

1.6 km/h aus 115

4.8 km/h aus WNW

13.4 C

15.4 C

15.3 C

15.4 C

560 W/m

0.00 mm

11:10

15.6 C

1021.5 hpa

86 %

0.0 km/h aus 113

4.8 km/h aus NW

13.2 C

15.6 C

15.6 C

15.6 C

566 W/m

0.00 mm

11:15

16.1 C

1021.4 hpa

86 %

0.0 km/h aus 116

4.8 km/h aus NW

13.7 C

16.2 C

16.1 C

16.2 C

533 W/m

0.00 mm

11:20

16.2 C

1021.4 hpa

85 %

0.0 km/h aus 117

3.2 km/h aus NW

13.7 C

16.3 C

16.2 C

16.3 C

511 W/m

0.00 mm

11:25

16.7 C

1021.4 hpa

84 %

1.6 km/h aus 117

4.8 km/h aus NW

14.0 C

16.9 C

16.7 C

16.9 C

540 W/m

0.00 mm

11:30

17.0 C

1021.2 hpa

83 %

3.2 km/h aus 115

6.4 km/h aus WNW

14.1 C

17.2 C

17.0 C

17.2 C

544 W/m

0.00 mm

11:35

17.6 C

1021.2 hpa

83 %

0.0 km/h aus 117

4.8 km/h aus NW

14.7 C

17.9 C

17.6 C

17.9 C

568 W/m

0.00 mm

11:40

17.9 C

1021.2 hpa

80 %

0.0 km/h aus 116

4.8 km/h aus NW

14.4 C

18.2 C

17.9 C

18.2 C

566 W/m

0.00 mm

11:45

17.8 C

1021.2 hpa

80 %

0.0 km/h aus 117

0.0 km/h aus ---

14.3 C

18.1 C

17.8 C

18.1 C

528 W/m

0.00 mm

11:50

18.3 C

1021.2 hpa

77 %

1.6 km/h aus 115

4.8 km/h aus NNW

14.2 C

18.6 C

18.3 C

18.6 C

532 W/m

0.00 mm

11:55

18.3 C

1021.2 hpa

77 %

0.0 km/h aus 116

3.2 km/h aus NNW

14.2 C

18.6 C

18.3 C

18.6 C

538 W/m

0.00 mm

12:00

18.8 C

1021.2 hpa

75 %

1.6 km/h aus 116

6.4 km/h aus NNW

14.3 C

19.1 C

18.8 C

19.1 C

564 W/m

0.00 mm

12:05

19.0 C

1021.2 hpa

76 %

0.0 km/h aus 117

3.2 km/h aus NNW

14.7 C

19.3 C

19.0 C

19.3 C

565 W/m

0.00 mm

12:10

18.8 C

1021.2 hpa

78 %

1.6 km/h aus 116

6.4 km/h aus NNW

14.9 C

19.2 C

18.8 C

19.2 C

460 W/m

0.00 mm

12:15

18.8 C

1021.1 hpa

76 %

1.6 km/h aus 114

6.4 km/h aus NW

14.5 C

19.2 C

18.8 C

19.2 C

403 W/m

0.00 mm

12:20

19.2 C

1021.1 hpa

75 %

3.2 km/h aus 117

8.0 km/h aus WNW

14.6 C

19.5 C

19.2 C

19.5 C

463 W/m

0.00 mm

12:25

19.2 C

1021.1 hpa

74 %

1.6 km/h aus 117

8.0 km/h aus NW

14.5 C

19.6 C

19.2 C

19.6 C

496 W/m

0.00 mm

12:30

19.6 C

1021.1 hpa

72 %

0.0 km/h aus 117

6.4 km/h aus NW

14.4 C

19.9 C

19.6 C

19.9 C

542 W/m

0.00 mm

12:35

20.0 C

1021.1 hpa

70 %

1.6 km/h aus 113

6.4 km/h aus NW

14.4 C

20.3 C

20.0 C

20.3 C

594 W/m

0.00 mm

12:40

19.7 C

1021.1 hpa

71 %

1.6 km/h aus 116

6.4 km/h aus NW

14.3 C

20.1 C

19.7 C

20.1 C

539 W/m

0.00 mm

12:45

19.9 C

1021.1 hpa

72 %

1.6 km/h aus 117

6.4 km/h aus NNW

14.7 C

20.3 C

19.9 C

20.3 C

502 W/m

0.00 mm

12:50

20.3 C

1021.1 hpa

71 %

0.0 km/h aus 116

3.2 km/h aus NNW

14.8 C

20.6 C

20.3 C

20.6 C

560 W/m

0.00 mm

12:55

20.6 C

1021.1 hpa

67 %

0.0 km/h aus 116

4.8 km/h aus NNW

14.2 C

20.6 C

20.6 C

20.6 C

590 W/m

0.00 mm

13:00

20.6 C

1020.9 hpa

68 %

4.8 km/h aus 115

9.7 km/h aus NW

14.4 C

20.7 C

20.6 C

20.7 C

580 W/m

0.00 mm

13:05

20.6 C

1020.9 hpa

66 %

3.2 km/h aus 117

9.7 km/h aus NNW

14.0 C

20.6 C

20.6 C

20.6 C

577 W/m

0.00 mm

13:10

20.8 C

1020.9 hpa

65 %

3.2 km/h aus 117

8.0 km/h aus N

14.0 C

20.7 C

20.8 C

20.7 C

563 W/m

0.00 mm

13:15

20.8 C

1020.8 hpa

64 %

3.2 km/h aus 116

6.4 km/h aus WNW

13.7 C

20.6 C

20.8 C

20.6 C

568 W/m

0.00 mm

13:20

20.8 C

1020.8 hpa

66 %

3.2 km/h aus 114

6.4 km/h aus NW

14.2 C

20.8 C

20.8 C

20.8 C

549 W/m

0.00 mm

13:25

20.7 C

1020.8 hpa

65 %

1.6 km/h aus 117

4.8 km/h aus NW

13.9 C

20.6 C

20.7 C

20.6 C

441 W/m

0.00 mm

13:30

20.2 C

1020.7 hpa

67 %

0.0 km/h aus 117

1.6 km/h aus NNW

13.8 C

20.3 C

20.2 C

20.3 C

325 W/m

0.00 mm

13:35

20.4 C

1020.7 hpa

67 %

1.6 km/h aus 117

6.4 km/h aus NNW

14.1 C

20.6 C

20.4 C

20.6 C

316 W/m

0.00 mm

13:40

20.4 C

1020.7 hpa

66 %

1.6 km/h aus 115

6.4 km/h aus NNW

13.9 C

20.5 C

20.4 C

20.5 C

443 W/m

0.00 mm

13:45

20.8 C

1020.7 hpa

67 %

0.0 km/h aus 116

6.4 km/h aus N

14.4 C

20.8 C

20.8 C

20.8 C

529 W/m

0.00 mm

13:50

20.8 C

1020.7 hpa

67 %

3.2 km/h aus 116

6.4 km/h aus N

14.4 C

20.8 C

20.8 C

20.8 C

516 W/m

0.00 mm

13:55

20.9 C

1020.7 hpa

67 %

1.6 km/h aus 117

8.0 km/h aus N

14.6 C

20.9 C

20.9 C

20.9 C

489 W/m

0.00 mm

14:00

20.6 C

1020.7 hpa

64 %

1.6 km/h aus 114

8.0 km/h aus NNW

13.5 C

20.4 C

20.6 C

20.4 C

501 W/m

0.00 mm

14:05

20.7 C

1020.7 hpa

67 %

0.0 km/h aus 116

3.2 km/h aus WNW

14.4 C

20.7 C

20.7 C

20.7 C

416 W/m

0.00 mm

14:10

20.8 C

1020.7 hpa

64 %

1.6 km/h aus 117

6.4 km/h aus WNW

13.7 C

20.6 C

20.8 C

20.6 C

416 W/m

0.00 mm

14:15

20.8 C

1020.7 hpa

66 %

0.0 km/h aus 116

3.2 km/h aus WNW

14.2 C

20.8 C

20.8 C

20.8 C

413 W/m

0.00 mm

14:20

20.7 C

1020.7 hpa

65 %

0.0 km/h aus 115

4.8 km/h aus WNW

13.9 C

20.6 C

20.7 C

20.6 C

399 W/m

0.00 mm

14:25

20.9 C

1020.7 hpa

64 %

3.2 km/h aus 115

11.3 km/h aus WSW

13.9 C

20.8 C

20.9 C

20.8 C

478 W/m

0.00 mm

14:30

21.2 C

1020.8 hpa

63 %

3.2 km/h aus 115

8.0 km/h aus NNW

13.8 C

20.9 C

21.2 C

20.9 C

463 W/m

0.00 mm

14:35

21.5 C

1020.8 hpa

62 %

3.2 km/h aus 117

8.0 km/h aus WNW

13.9 C

21.3 C

21.5 C

21.3 C

537 W/m

0.00 mm

14:40

21.5 C

1020.8 hpa

63 %

4.8 km/h aus 116

11.3 km/h aus NNW

14.2 C

21.3 C

21.5 C

21.3 C

528 W/m

0.00 mm

14:45

21.6 C

1020.9 hpa

60 %

3.2 km/h aus 115

8.0 km/h aus N

13.5 C

21.2 C

21.6 C

21.2 C

576 W/m

0.00 mm

14:50

21.7 C

1020.9 hpa

59 %

3.2 km/h aus 117

6.4 km/h aus WNW

13.3 C

21.3 C

21.7 C

21.3 C

518 W/m

0.00 mm

14:55

21.5 C

1020.9 hpa

61 %

3.2 km/h aus 117

8.0 km/h aus NW

13.7 C

21.2 C

21.5 C

21.2 C

458 W/m

0.00 mm

15:00

21.5 C

1020.7 hpa

62 %

1.6 km/h aus 116

6.4 km/h aus NNW

13.9 C

21.3 C

21.5 C

21.3 C

539 W/m

0.00 mm

15:05

21.7 C

1020.7 hpa

60 %

3.2 km/h aus 113

9.7 km/h aus NNW

13.6 C

21.4 C

21.7 C

21.4 C

542 W/m

0.00 mm

15:10

21.8 C

1020.7 hpa

58 %

0.0 km/h aus 117

8.0 km/h aus NW

13.2 C

21.5 C

21.8 C

21.5 C

546 W/m

0.00 mm

15:15

21.8 C

1020.6 hpa

59 %

3.2 km/h aus 117

6.4 km/h aus NW

13.5 C

21.6 C

21.8 C

21.6 C

529 W/m

0.00 mm

15:20

21.4 C

1020.6 hpa

60 %

0.0 km/h aus 115

8.0 km/h aus NNW

13.4 C

21.1 C

21.4 C

21.1 C

528 W/m

0.00 mm

15:25

21.9 C

1020.6 hpa

61 %

3.2 km/h aus 114

8.0 km/h aus NNW

14.1 C

21.8 C

21.9 C

21.8 C

536 W/m

0.00 mm

15:30

21.8 C

1020.6 hpa

57 %

0.0 km/h aus 117

8.0 km/h aus NW

12.9 C

21.4 C

21.8 C

21.4 C

533 W/m

0.00 mm

15:35

21.7 C

1020.6 hpa

56 %

3.2 km/h aus 117

9.7 km/h aus WNW

12.6 C

21.2 C

21.7 C

21.2 C

530 W/m

0.00 mm

15:40

21.8 C

1020.6 hpa

58 %

0.0 km/h aus 118

4.8 km/h aus NNW

13.2 C

21.5 C

21.8 C

21.5 C

522 W/m

0.00 mm

15:45

22.1 C

1020.6 hpa

49 %

4.8 km/h aus 113

9.7 km/h aus N

10.8 C

21.4 C

22.1 C

21.4 C

534 W/m

0.00 mm

15:50

21.8 C

1020.6 hpa

50 %

3.2 km/h aus 117

9.7 km/h aus WNW

10.9 C

21.1 C

21.8 C

21.1 C

474 W/m

0.00 mm

15:55

21.9 C

1020.6 hpa

51 %

1.6 km/h aus 116

6.4 km/h aus NNW

11.3 C

21.3 C

21.9 C

21.3 C

538 W/m

0.00 mm

16:00

22.0 C

1020.5 hpa

47 %

1.6 km/h aus 115

8.0 km/h aus NW

10.2 C

21.2 C

22.0 C

21.2 C

493 W/m

0.00 mm

16:05

21.8 C

1020.5 hpa

50 %

3.2 km/h aus 116

6.4 km/h aus W

10.9 C

21.1 C

21.8 C

21.1 C

363 W/m

0.00 mm

16:10

21.7 C

1020.5 hpa

50 %

1.6 km/h aus 117

8.0 km/h aus N

10.8 C

20.9 C

21.7 C

20.9 C

356 W/m

0.00 mm

16:15

21.6 C

1020.4 hpa

53 %

1.6 km/h aus 116

6.4 km/h aus N

11.6 C

20.9 C

21.6 C

20.9 C

372 W/m

0.00 mm

16:20

21.8 C

1020.4 hpa

52 %

1.6 km/h aus 115

6.4 km/h aus N

11.5 C

21.2 C

21.8 C

21.2 C

468 W/m

0.00 mm

16:25

22.0 C

1020.4 hpa

52 %

1.6 km/h aus 114

8.0 km/h aus N

11.7 C

21.5 C

22.0 C

21.5 C

479 W/m

0.00 mm

16:30

21.8 C

1020.4 hpa

51 %

1.6 km/h aus 117

8.0 km/h aus N

11.2 C

21.2 C

21.8 C

21.2 C

478 W/m

0.00 mm

16:35

21.8 C

1020.4 hpa

52 %

1.6 km/h aus 117

6.4 km/h aus N

11.5 C

21.2 C

21.8 C

21.2 C

330 W/m

0.00 mm

16:40

21.4 C

1020.4 hpa

54 %

3.2 km/h aus 116

9.7 km/h aus WNW

11.7 C

20.7 C

21.4 C

20.7 C

208 W/m

0.00 mm

16:45

21.1 C

1020.4 hpa

56 %

1.6 km/h aus 116

6.4 km/h aus NW

12.0 C

20.4 C

21.1 C

20.4 C

182 W/m

0.00 mm

16:50

20.9 C

1020.4 hpa

55 %

1.6 km/h aus 116

4.8 km/h aus NW

11.6 C

20.3 C

20.9 C

20.3 C

188 W/m

0.00 mm

16:55

20.9 C

1020.4 hpa

57 %

0.0 km/h aus 117

4.8 km/h aus NW

12.0 C

20.3 C

20.9 C

20.3 C

216 W/m

0.00 mm

17:00

21.1 C

1020.4 hpa

56 %

1.6 km/h aus 116

6.4 km/h aus NW

11.9 C

20.4 C

21.1 C

20.4 C

245 W/m

0.00 mm

17:05

21.3 C

1020.4 hpa

54 %

1.6 km/h aus 114

6.4 km/h aus NW

11.6 C

20.6 C

21.3 C

20.6 C

290 W/m

0.00 mm

17:10

21.6 C

1020.4 hpa

53 %

1.6 km/h aus 116

6.4 km/h aus NW

11.6 C

20.9 C

21.6 C

20.9 C

404 W/m

0.00 mm

17:15

21.6 C

1020.2 hpa

55 %

1.6 km/h aus 117

4.8 km/h aus NW

12.1 C

20.9 C

21.6 C

20.9 C

240 W/m

0.00 mm

17:20

21.3 C

1020.2 hpa

56 %

1.6 km/h aus 116

4.8 km/h aus NW

12.1 C

20.7 C

21.3 C

20.7 C

173 W/m

0.00 mm

17:25

20.9 C

1020.2 hpa

57 %

0.0 km/h aus 113

3.2 km/h aus NW

12.1 C

20.4 C

20.9 C

20.4 C

140 W/m

0.00 mm

17:30

20.8 C

1020.3 hpa

58 %

1.6 km/h aus 116

4.8 km/h aus NW

12.3 C

20.3 C

20.8 C

20.3 C

124 W/m

0.00 mm

17:35

20.7 C

1020.3 hpa

58 %

1.6 km/h aus 117

4.8 km/h aus NW

12.2 C

20.3 C

20.7 C

20.3 C

114 W/m

0.00 mm

17:40

20.6 C

1020.3 hpa

62 %

1.6 km/h aus 117

6.4 km/h aus NW

13.0 C

20.3 C

20.6 C

20.3 C

108 W/m

0.00 mm

17:45

20.4 C

1020.2 hpa

62 %

3.2 km/h aus 115

6.4 km/h aus NW

12.9 C

20.3 C

20.4 C

20.3 C

112 W/m

0.00 mm

17:50

20.4 C

1020.2 hpa

62 %

3.2 km/h aus 116

4.8 km/h aus N

12.9 C

20.2 C

20.4 C

20.2 C

124 W/m

0.00 mm

17:55

20.4 C

1020.2 hpa

62 %

1.6 km/h aus 117

4.8 km/h aus N

12.9 C

20.3 C

20.4 C

20.3 C

127 W/m

0.00 mm

18:00

20.4 C

1020.1 hpa

64 %

0.0 km/h aus 116

0.0 km/h aus ---

13.4 C

20.4 C

20.4 C

20.4 C

116 W/m

0.00 mm

18:05

20.4 C

1020.1 hpa

63 %

0.0 km/h aus 116

4.8 km/h aus N

13.2 C

20.3 C

20.4 C

20.3 C

108 W/m

0.00 mm

18:10

20.4 C

1020.1 hpa

63 %

0.0 km/h aus 114

0.0 km/h aus ---

13.1 C

20.3 C

20.4 C

20.3 C

126 W/m

0.00 mm

18:15

20.5 C

1020.2 hpa

62 %

0.0 km/h aus 117

0.0 km/h aus ---

13.0 C

20.3 C

20.5 C

20.3 C

145 W/m

0.00 mm

18:20

20.4 C

1020.2 hpa

62 %

3.2 km/h aus 115

8.0 km/h aus N

12.9 C

20.3 C

20.4 C

20.3 C

118 W/m

0.00 mm

18:25

20.3 C

1020.2 hpa

64 %

1.6 km/h aus 116

6.4 km/h aus NNW

13.3 C

20.3 C

20.3 C

20.3 C

116 W/m

0.00 mm

18:30

20.3 C

1020.2 hpa

63 %

1.6 km/h aus 115

4.8 km/h aus NNW

13.1 C

20.2 C

20.3 C

20.2 C

115 W/m

0.00 mm

18:35

20.3 C

1020.2 hpa

63 %

0.0 km/h aus 115

4.8 km/h aus NNW

13.1 C

20.2 C

20.3 C

20.2 C

124 W/m

0.00 mm

18:40

20.3 C

1020.2 hpa

63 %

1.6 km/h aus 117

4.8 km/h aus NNW

13.0 C

20.2 C

20.3 C

20.2 C

105 W/m

0.00 mm

18:45

20.3 C

1020.2 hpa

64 %

0.0 km/h aus 117

0.0 km/h aus ---

13.2 C

20.2 C

20.3 C

20.2 C

89 W/m

0.00 mm

18:50

20.2 C

1020.2 hpa

64 %

0.0 km/h aus 116

0.0 km/h aus ---

13.1 C

20.2 C

20.2 C

20.2 C

74 W/m

0.00 mm

18:55

20.1 C

1020.2 hpa

64 %

0.0 km/h aus 115

0.0 km/h aus ---

13.1 C

20.1 C

20.1 C

20.1 C

63 W/m

0.00 mm

19:00

20.1 C

1020.2 hpa

65 %

0.0 km/h aus 117

0.0 km/h aus ---

13.3 C

20.2 C

20.1 C

20.2 C

51 W/m

0.00 mm

19:05

20.1 C

1020.2 hpa

65 %

0.0 km/h aus 117

0.0 km/h aus ---

13.3 C

20.2 C

20.1 C

20.2 C

41 W/m

0.00 mm

19:10

20.1 C

1020.2 hpa

64 %

0.0 km/h aus 116

0.0 km/h aus ---

13.1 C

20.1 C

20.1 C

20.1 C

34 W/m

0.00 mm

19:15

20.1 C

1020.2 hpa

64 %

0.0 km/h aus 115

0.0 km/h aus ---

13.1 C

20.1 C

20.1 C

20.1 C

25 W/m

0.00 mm

19:20

20.1 C

1020.2 hpa

64 %

0.0 km/h aus 116

0.0 km/h aus ---

13.0 C

20.1 C

20.1 C

20.1 C

19 W/m

0.00 mm

19:25

20.1 C

1020.2 hpa

64 %

0.0 km/h aus 117

0.0 km/h aus ---

13.0 C

20.1 C

20.1 C

20.1 C

16 W/m

0.00 mm

19:30

20.0 C

1020.2 hpa

64 %

0.0 km/h aus 117

0.0 km/h aus ---

13.0 C

20.1 C

20.0 C

20.1 C

13 W/m

0.00 mm

19:35

19.9 C

1020.2 hpa

65 %

0.0 km/h aus 114

0.0 km/h aus ---

13.1 C

20.0 C

19.9 C

20.0 C

12 W/m

0.00 mm

19:40

19.8 C

1020.2 hpa

65 %

0.0 km/h aus 116

0.0 km/h aus ---

13.1 C

19.9 C

19.8 C

19.9 C

7 W/m

0.00 mm

19:45

19.8 C

1020.2 hpa

65 %

0.0 km/h aus 117

0.0 km/h aus ---

13.0 C

19.8 C

19.8 C

19.8 C

5 W/m

0.00 mm

19:50

19.7 C

1020.2 hpa

65 %

0.0 km/h aus 116

0.0 km/h aus ---

12.9 C

19.7 C

19.7 C

19.7 C

0 W/m

0.00 mm

19:55

19.6 C

1020.2 hpa

66 %

0.0 km/h aus 117

0.0 km/h aus ---

13.0 C

19.6 C

19.6 C

19.6 C

0 W/m

0.00 mm

20:00

19.4 C

1020.3 hpa

67 %

0.0 km/h aus 115

0.0 km/h aus ---

13.2 C

19.6 C

19.4 C

19.6 C

0 W/m

0.00 mm

20:05

19.3 C

1020.3 hpa

67 %

0.0 km/h aus 117

0.0 km/h aus ---

13.0 C

19.4 C

19.3 C

19.4 C

0 W/m

0.00 mm

20:10

19.2 C

1020.3 hpa

68 %

0.0 km/h aus 116

0.0 km/h aus ---

13.2 C

19.3 C

19.2 C

19.3 C

0 W/m

0.00 mm

20:15

19.1 C

1020.5 hpa

69 %

0.0 km/h aus 116

0.0 km/h aus ---

13.3 C

19.2 C

19.1 C

19.2 C

0 W/m

0.00 mm

20:20

19.0 C

1020.5 hpa

69 %

0.0 km/h aus 115

0.0 km/h aus ---

13.2 C

19.1 C

19.0 C

19.1 C

0 W/m

0.00 mm

20:25

18.9 C

1020.5 hpa

70 %

0.0 km/h aus 116

0.0 km/h aus ---

13.3 C

19.0 C

18.9 C

19.0 C

0 W/m

0.00 mm

20:30

18.8 C

1020.6 hpa

71 %

0.0 km/h aus 117

0.0 km/h aus ---

13.4 C

18.9 C

18.8 C

18.9 C

0 W/m

0.00 mm

20:35

18.7 C

1020.6 hpa

71 %

0.0 km/h aus 116

0.0 km/h aus ---

13.3 C

18.8 C

18.7 C

18.8 C

0 W/m

0.00 mm

20:40

18.6 C

1020.6 hpa

71 %

0.0 km/h aus 116

0.0 km/h aus ---

13.2 C

18.7 C

18.6 C

18.7 C

0 W/m

0.00 mm

20:45

18.5 C

1020.6 hpa

72 %

0.0 km/h aus 113

0.0 km/h aus ---

13.4 C

18.6 C

18.5 C

18.6 C

0 W/m

0.00 mm

20:50

18.4 C

1020.6 hpa

73 %

0.0 km/h aus 117

0.0 km/h aus ---

13.5 C

18.5 C

18.4 C

18.5 C

0 W/m

0.00 mm

20:55

18.3 C

1020.6 hpa

73 %

0.0 km/h aus 117

0.0 km/h aus ---

13.4 C

18.4 C

18.3 C

18.4 C

0 W/m

0.00 mm

21:00

18.2 C

1020.6 hpa

73 %

0.0 km/h aus 118

0.0 km/h aus ---

13.3 C

18.3 C

18.2 C

18.3 C

0 W/m

0.00 mm

21:05

18.2 C

1020.6 hpa

74 %

0.0 km/h aus 115

0.0 km/h aus ---

13.5 C

18.3 C

18.2 C

18.3 C

0 W/m

0.00 mm

21:10

18.1 C

1020.6 hpa

74 %

0.0 km/h aus 115

0.0 km/h aus ---

13.3 C

18.1 C

18.1 C

18.1 C

0 W/m

0.00 mm

21:15

17.9 C

1020.9 hpa

74 %

0.0 km/h aus 117

0.0 km/h aus ---

13.2 C

18.0 C

17.9 C

18.0 C

0 W/m

0.00 mm

21:20

17.8 C

1020.9 hpa

75 %

0.0 km/h aus 117

0.0 km/h aus ---

13.3 C

17.9 C

17.8 C

17.9 C

0 W/m

0.00 mm

21:25

17.7 C

1020.9 hpa

75 %

0.0 km/h aus 117

0.0 km/h aus ---

13.2 C

17.8 C

17.7 C

17.8 C

0 W/m

0.00 mm

21:30

17.7 C

1021.1 hpa

75 %

0.0 km/h aus 114

0.0 km/h aus ---

13.2 C

17.7 C

17.7 C

17.7 C

0 W/m

0.00 mm

21:35

17.6 C

1021.1 hpa

75 %

0.0 km/h aus 115

0.0 km/h aus ---

13.1 C

17.6 C

17.6 C

17.6 C

0 W/m

0.00 mm

21:40

17.5 C

1021.1 hpa

76 %

0.0 km/h aus 117

0.0 km/h aus ---

13.2 C

17.6 C

17.5 C

17.6 C

0 W/m

0.00 mm

21:45

17.4 C

1021.1 hpa

76 %

0.0 km/h aus 117

0.0 km/h aus ---

13.2 C

17.5 C

17.4 C

17.5 C

0 W/m

0.00 mm

21:50

17.4 C

1021.1 hpa

77 %

0.0 km/h aus 116

0.0 km/h aus ---

13.3 C

17.4 C

17.4 C

17.4 C

0 W/m

0.00 mm

21:55

17.3 C

1021.1 hpa

77 %

0.0 km/h aus 114

0.0 km/h aus ---

13.3 C

17.4 C

17.3 C

17.4 C

0 W/m

0.00 mm

22:00

17.3 C

1021.3 hpa

77 %

0.0 km/h aus 117

0.0 km/h aus ---

13.2 C

17.3 C

17.3 C

17.3 C

0 W/m

0.00 mm

22:05

17.2 C

1021.3 hpa

77 %

0.0 km/h aus 117

0.0 km/h aus ---

13.1 C

17.2 C

17.2 C

17.2 C

0 W/m

0.00 mm

22:10

17.2 C

1021.3 hpa

77 %

0.0 km/h aus 115

0.0 km/h aus ---

13.1 C

17.2 C

17.2 C

17.2 C

0 W/m

0.00 mm

22:15

17.1 C

1021.2 hpa

78 %

0.0 km/h aus 116

0.0 km/h aus ---

13.2 C

17.1 C

17.1 C

17.1 C

0 W/m

0.00 mm

22:20

17.0 C

1021.2 hpa

78 %

0.0 km/h aus 114

0.0 km/h aus ---

13.1 C

17.1 C

17.0 C

17.1 C

0 W/m

0.00 mm

22:25

17.0 C

1021.2 hpa

79 %

0.0 km/h aus 117

0.0 km/h aus ---

13.3 C

17.1 C

17.0 C

17.1 C

0 W/m

0.00 mm

22:30

16.9 C

1021.1 hpa

79 %

0.0 km/h aus 116

0.0 km/h aus ---

13.3 C

17.1 C

16.9 C

17.1 C

0 W/m

0.00 mm

22:35

16.9 C

1021.1 hpa

79 %

0.0 km/h aus 117

0.0 km/h aus ---

13.2 C

17.0 C

16.9 C

17.0 C

0 W/m

0.00 mm

22:40

16.8 C

1021.1 hpa

79 %

0.0 km/h aus 114

0.0 km/h aus ---

13.1 C

16.8 C

16.8 C

16.8 C

0 W/m

0.00 mm

22:45

16.7 C

1021.1 hpa

79 %

0.0 km/h aus 116

0.0 km/h aus ---

13.1 C

16.8 C

16.7 C

16.8 C

0 W/m

0.00 mm

22:50

16.7 C

1021.1 hpa

79 %

0.0 km/h aus 116

0.0 km/h aus ---

13.0 C

16.7 C

16.7 C

16.7 C

0 W/m

0.00 mm

22:55

16.6 C

1021.1 hpa

79 %

0.0 km/h aus 117

0.0 km/h aus ---

13.0 C

16.7 C

16.6 C

16.7 C

0 W/m

0.00 mm

23:00

16.6 C

1021.0 hpa

80 %

0.0 km/h aus 116

0.0 km/h aus ---

13.1 C

16.7 C

16.6 C

16.7 C

0 W/m

0.00 mm

23:05

16.5 C

1021.0 hpa

80 %

0.0 km/h aus 115

0.0 km/h aus ---

13.0 C

16.6 C

16.5 C

16.6 C

0 W/m

0.00 mm

23:10

16.5 C

1021.0 hpa

80 %

0.0 km/h aus 115

0.0 km/h aus ---

13.0 C

16.6 C

16.5 C

16.6 C

0 W/m

0.00 mm

23:15

16.4 C

1021.1 hpa

81 %

0.0 km/h aus 116

0.0 km/h aus ---

13.2 C

16.5 C

16.4 C

16.5 C

0 W/m

0.00 mm

23:20

16.4 C

1021.1 hpa

81 %

0.0 km/h aus 116

0.0 km/h aus ---

13.1 C

16.4 C

16.4 C

16.4 C

0 W/m

0.00 mm

23:25

16.4 C

1021.1 hpa

81 %

0.0 km/h aus 116

0.0 km/h aus ---

13.1 C

16.4 C

16.4 C

16.4 C

0 W/m

0.00 mm

23:30

16.3 C

1021.2 hpa

81 %

0.0 km/h aus 114

0.0 km/h aus ---

13.1 C

16.4 C

16.3 C

16.4 C

0 W/m

0.00 mm

23:35

16.3 C

1021.2 hpa

81 %

0.0 km/h aus 117

0.0 km/h aus ---

13.0 C

16.3 C

16.3 C

16.3 C

0 W/m

0.00 mm

23:40

16.3 C

1021.2 hpa

81 %

0.0 km/h aus 117

0.0 km/h aus ---

13.0 C

16.3 C

16.3 C

16.3 C

0 W/m

0.00 mm

23:45

16.2 C

1021.2 hpa

81 %

0.0 km/h aus 117

0.0 km/h aus ---

13.0 C

16.3 C

16.2 C

16.3 C

0 W/m

0.00 mm

23:50

16.2 C

1021.2 hpa

81 %

0.0 km/h aus 114

0.0 km/h aus ---

13.0 C

16.3 C

16.2 C

16.3 C

0 W/m

0.00 mm

23:55

16.2 C

1021.2 hpa

81 %

0.0 km/h aus 115

0.0 km/h aus ---

12.9 C

16.2 C

16.2 C

16.2 C

0 W/m

0.00 mm